Weather History for Dayton Wright, OH

Change the Weather History Date:

Monday, May 6, 2013

  Actual Average (KFFO) Record (KFFO)
Temperature  
Mean Temperature 57 °F -  
Max Temperature 60 °F 70 °F 86 °F (2000)
Min Temperature 54 °F 48 °F 37 °F (2005)
Degree Days  
Heating Degree Days 8    
Growing Degree Days 7 (Base 50)    
Moisture  
Dew Point 54 °F    
Average Humidity 90    
Maximum Humidity 100    
Minimum Humidity 83    
Precipitation  
Precipitation 0.62 in - - ()
Sea Level Pressure  
Sea Level Pressure 29.95 in    
Wind  
Wind Speed 7 mph (East)    
Max Wind Speed 16 mph    
Max Gust Speed 22 mph    
Visibility 9 miles    
Events Rain    
Averages and records for this station are not official NWS values.
T = Trace of Precipitation, MM = Missing Value Source: NWS Daily Summary

Daily Weather History Graph

Daily Weather History Graph

Search for Another Location

Airport:

Trip Planner

Search our weather history database for the weather conditions in past years. The results will help you decide how hot, cold, wet, or windy it might be!

Date:

Astronomy

May. 06, 2013 Rise Set
Actual Time 6:31 AM EDT 8:36 PM EDT
Civil Twilight 6:02 AM EDT 9:05 PM EDT
Nautical Twilight 5:25 AM EDT 9:41 PM EDT
Astronomical Twilight 4:46 AM EDT 10:21 PM EDT
Moon 4:32 AM EDT (5/6) 5:35 PM EDT (5/6)
Length of Visible Light 15h 03m
Length of Day
14h 04m
Waning Crescent, 11% of the Moon is Illuminated
May 6
Waning Crescent
May 9
New
May 18
First Quarter
May 25
Full
May 31
Last Quarter

Hourly Weather History & Observations

Time (EDT) Temp. Dew Point Humidity Pressure Visibility Wind Dir Wind Speed Gust Speed Precip Events Conditions
12:53 AM 54.0 °F 50.0 °F 86% 29.96 in 10.0 mi ESE 3.5 mph - 0.01 in   Overcast
1:53 AM 54.0 °F 51.1 °F 90% 29.94 in 10.0 mi ENE 3.5 mph - 0.03 in Rain Light Rain
2:53 AM 54.0 °F 51.1 °F 90% 29.93 in 10.0 mi East 4.6 mph - 0.03 in Rain Light Rain
3:53 AM 54.0 °F 51.1 °F 90% 29.92 in 7.0 mi East 3.5 mph - 0.04 in Rain Light Rain
4:53 AM 54.0 °F 51.1 °F 90% 29.91 in 10.0 mi ENE 5.8 mph - 0.07 in Rain Light Rain
5:53 AM 55.0 °F 52.0 °F 89% 29.92 in 10.0 mi East 6.9 mph - N/A   Overcast
6:53 AM 54.0 °F 52.0 °F 93% 29.94 in 4.0 mi East 9.2 mph 17.3 mph 0.09 in Rain Rain
7:53 AM 54.0 °F 52.0 °F 93% 29.95 in 6.0 mi East 10.4 mph - 0.08 in Rain Light Rain
8:53 AM 54.0 °F 51.1 °F 90% 29.95 in 10.0 mi East 11.5 mph - 0.07 in Rain Light Rain
9:53 AM 55.0 °F 52.0 °F 89% 29.95 in 9.0 mi East 11.5 mph 20.7 mph 0.02 in Rain Light Rain
10:53 AM 55.9 °F 53.1 °F 90% 29.95 in 10.0 mi East 9.2 mph 20.7 mph 0.02 in Rain Light Rain
11:53 AM 55.0 °F 53.1 °F 93% 29.98 in 5.0 mi East 9.2 mph - 0.03 in Rain Light Rain
12:53 PM 55.9 °F 54.0 °F 93% 29.98 in 6.0 mi ENE 11.5 mph - 0.07 in Rain Light Rain
1:53 PM 55.9 °F 54.0 °F 93% 29.97 in 5.0 mi East 11.5 mph 21.9 mph 0.02 in Rain Light Rain
2:39 PM 55.4 °F 55.4 °F 100% 29.97 in 6.0 mi ENE 12.7 mph 21.9 mph 0.03 in Rain Light Rain
2:53 PM 57.0 °F 55.0 °F 93% 29.96 in 10.0 mi ENE 9.2 mph 18.4 mph 0.03 in   Overcast
3:33 PM 57.2 °F 55.4 °F 94% 29.95 in 9.0 mi East 6.9 mph - 0.00 in Rain Light Rain
3:53 PM 57.9 °F 55.9 °F 93% 29.95 in 10.0 mi East 6.9 mph - 0.00 in   Overcast
4:32 PM 59.0 °F 55.4 °F 88% 29.94 in 10.0 mi East 15.0 mph 20.7 mph N/A   Overcast
4:37 PM 59.0 °F 55.4 °F 88% 29.94 in 10.0 mi ENE 9.2 mph 20.7 mph N/A   Overcast
4:53 PM 60.1 °F 55.0 °F 83% 29.94 in 10.0 mi ENE 16.1 mph 21.9 mph N/A   Overcast
5:30 PM 59.0 °F 55.4 °F 88% 29.94 in 10.0 mi East 8.1 mph 17.3 mph 0.00 in Rain Light Rain
5:50 PM 59.0 °F 55.4 °F 88% 29.93 in 10.0 mi East 9.2 mph 19.6 mph 0.01 in Rain Light Rain
5:53 PM 59.0 °F 55.0 °F 87% 29.93 in 10.0 mi East 9.2 mph 19.6 mph 0.01 in Rain Light Rain
6:53 PM 59.0 °F 55.0 °F 87% 29.93 in 10.0 mi ENE 9.2 mph - 0.00 in   Partly Cloudy
7:53 PM 59.0 °F 55.0 °F 87% 29.93 in 10.0 mi ENE 6.9 mph - N/A   Partly Cloudy
8:53 PM 57.9 °F 55.0 °F 90% 29.94 in 10.0 mi ENE 9.2 mph - N/A   Mostly Cloudy
9:53 PM 57.0 °F 54.0 °F 89% 29.96 in 10.0 mi East 6.9 mph - N/A   Partly Cloudy
10:53 PM 57.0 °F 54.0 °F 89% 29.97 in 10.0 mi ENE 5.8 mph - N/A   Overcast
11:53 PM 55.9 °F 55.0 °F 97% 29.97 in 10.0 mi ENE 5.8 mph - 0.00 in   Overcast